Volver al catálogo

SL-8 R/B

ActivoPO
NORAD 11327·ROCKET BODY·🇷🇺 Russia

Lanzado Apr 11, 1979 desde Plesetsk Cosmodrome

Loading…

Próximos Pases (próximas 24 horas)

TLE

ActualizadoSource: Space-Track

Época: Sep 14, 2026, 14:24 UTC

1 11327U 79030B   26257.60059698  .00000011  00000-0 -50299-5 0  9991
2 11327  82.9500 308.7129 0028900  87.2734  75.8779 13.77237785383591

Sigue SL-8 R/B en tiempo real con AllMySat

Download on the App Store